User: anonymous   Login
Location: Lawrence Hall of Science
(37.8785°N, 122.2415°W)
Time: 14:43:36
(UTC-07:00)
Language:

NOSS 3-1 (C) - Orbit

View from above orbital plane
View from above orbital plane
View from above satellite
View from above satellite

Ground track
Ground track

The orbit data is extracted from the following two-line orbital elements,

1 26907U 01040C   16213.83700247 0.00000000  00000-0  00000-0 0    06
2 26907  63.4158 127.2528 0344000 358.6443   1.3557 13.41255417    08
Epoch (UTC): 31 July 2016 20:05:17
Eccentricity: 0.0344000
inclination: 63.4158°
perigee height: 847 km
apogee height: 1362 km
right ascension of ascending node: 127.2528°
argument of perigee: 358.6443°
revolutions per day: 13.41255417
mean anomaly at epoch: 1.3557°
orbit number at epoch: 0

The dashed part of the orbit path shows where the satellite is in the earth's shadow,  

DLR